Wind_Speed
19 19 18 8 9 16 22 29 32 32 30 33 28 29 34 34 35 43 38 36 35 34 33 29 27 27 27 19 23 17 18 21 18 16 19 15 10 8 14 7 15 11 2 9 16 20 23 27 35
17 17 19 20 14 8 14 19 26 29 36 37 36 35 34 38 35 34 39 39 34 35 32 31 30 29 26 26 26 26 22 22 26 23 20 22 19 15 16 21 19 16 14 9 12 19 23 29 35
13 14 12 14 19 18 9 10 15 15 19 26 39 42 37 37 38 37 37 39 39 41 35 34 34 32 34 28 25 22 21 20 21 22 19 22 19 17 20 18 22 17 8 7 12 15 23 27 28
9 9 11 4 6 15 15 14 7 8 10 15 25 32 42 43 42 39 40 42 38 37 42 37 33 38 34 34 28 27 21 20 21 23 24 23 22 25 15 16 20 16 15 3 8 13 23 26 25
4 5 4 7 4 6 10 10 10 9 7 9 13 22 32 37 39 41 48 45 44 40 37 30 34 33 34 31 27 26 28 27 30 24 22 15 21 22 24 27 24 21 12 3 9 14 18 22 27
6 6 10 2 5 6 9 8 6 4 2 5 5 10 17 26 30 35 41 49 50 46 45 41 26 18 32 28 29 28 30 29 30 30 27 25 23 28 27 27 18 18 18 7 9 12 15 10 21
9 12 6 5 8 9 9 7 5 3 1 0 2 4 8 19 22 28 33 39 43 46 42 43 48 31 28 30 20 16 24 28 30 26 25 25 22 19 18 17 17 18 16 15 9 14 13 9 17
10 11 11 9 8 10 9 8 5 1 1 2 1 2 3 6 16 29 31 38 39 41 50 47 44 46 31 23 34 23 29 25 28 29 26 27 27 27 26 19 13 26 24 16 21 18 14 12 11
14 15 15 13 11 10 10 8 7 4 2 1 3 3 2 3 7 14 28 35 38 39 39 40 44 44 40 32 39 41 27 24 25 28 29 28 23 24 28 27 19 22 28 27 24 20 9 13 10
18 20 19 17 16 14 12 11 9 6 5 3 2 3 4 5 4 9 10 18 34 38 41 43 42 48 42 40 35 38 38 41 38 33 32 33 36 36 23 24 30 30 28 25 18 15 11 14 11
21 23 22 21 20 16 12 10 8 8 6 5 3 1 2 5 5 3 10 15 20 34 41 45 47 47 52 48 46 42 41 45 42 41 38 36 37 40 39 29 30 31 35 33 28 18 17 20 15
24 25 24 24 23 21 18 14 10 9 7 6 5 3 1 3 5 3 5 12 16 24 31 40 46 49 48 46 47 48 40 39 42 41 35 32 32 34 39 39 36 28 25 26 22 23 26 24 21
24 24 26 25 25 22 19 16 13 11 8 6 5 3 2 3 2 3 2 5 8 15 25 29 37 42 46 51 46 40 35 30 28 29 29 33 37 35 39 36 37 37 37 34 29 30 28 27 30
27 26 25 25 26 25 20 18 16 13 10 7 5 3 2 2 4 5 3 3 3 8 13 14 27 34 36 43 48 51 45 38 32 31 31 30 36 41 40 38 41 39 40 39 38 36 34 35 33
31 30 28 27 26 27 24 20 17 15 14 11 9 7 5 3 2 5 8 6 4 3 4 12 13 17 26 31 33 39 42 33 29 31 32 34 35 34 36 40 40 41 39 37 35 34 35 36 36
30 32 30 29 27 26 26 23 22 18 14 13 11 9 6 6 4 2 5 7 7 4 2 1 6 12 14 24 28 31 30 29 31 32 34 37 37 36 39 38 32 34 36 39 43 45 45 42 38
25 28 32 30 28 27 27 24 21 21 19 16 13 11 9 7 7 6 2 5 7 8 6 3 3 2 6 13 17 20 25 27 29 28 27 26 29 39 44 43 41 41 44 40 39 36 38 41 37
23 24 27 30 31 30 26 25 23 20 19 20 19 16 14 10 6 7 8 3 4 7 9 6 6 6 8 7 10 15 19 22 24 25 25 27 26 25 27 33 40 50 44 45 33 41 48 45 42
21 22 23 27 31 30 28 26 24 24 22 19 18 18 17 15 13 9 8 7 5 4 7 9 9 9 9 10 12 11 13 16 19 22 24 24 25 27 29 31 34 35 37 31 32 27 24 34 38
19 21 22 22 27 31 31 27 26 24 24 23 22 18 18 18 17 15 12 8 6 5 6 8 10 10 11 12 12 12 13 14 15 18 21 23 26 29 31 32 32 34 35 37 39 36 33 33 39
18 19 21 22 22 26 30 30 28 24 23 24 24 23 20 16 16 16 16 15 11 9 9 11 11 13 17 17 17 17 16 16 18 21 23 22 23 24 25 26 30 33 35 34 37 39 39 39 41
19 19 20 21 22 23 25 28 28 26 25 23 23 24 23 21 17 15 16 18 16 12 10 11 12 15 18 21 23 24 23 23 21 27 28 28 28 28 27 27 29 29 32 35 32 34 38 41 42
22 23 22 22 22 22 24 27 28 27 24 23 23 22 23 23 21 20 19 16 12 12 14 16 17 18 19 20 23 26 30 31 30 30 30 31 32 33 34 34 32 34 33 35 34 35 36 37 38
25 23 24 24 23 23 23 25 27 28 24 19 20 21 22 22 22 21 19 19 19 19 18 19 20 21 24 26 27 28 29 30 31 32 34 34 34 34 36 37 39 40 40 38 37 38 40 42 40
27 25 25 26 26 26 26 26 26 29 29 27 22 19 18 19 22 23 21 20 20 22 22 23 25 26 28 29 30 31 33 34 35 37 37 37 37 38 40 42 42 42 42 42 42 42 43 44 44
28 27 26 27 27 28 29 28 29 29 31 31 32 26 22 20 21 21 22 24 24 25 27 28 29 30 32 34 35 35 35 34 35 37 38 39 38 38 40 41 42 43 43 44 45 46 46 46 47
32 30 29 30 31 30 31 32 30 32 32 33 36 38 35 30 24 24 24 27 27 28 31 35 37 39 38 39 40 42 43 43 44 42 42 42 42 44 45 45 46 46 45 46 48 48 48 48 49
35 33 32 32 34 34 32 34 33 36 35 36 38 39 42 39 38 34 32 33 33 35 36 39 41 37 40 43 45 45 46 47 49 51 52 52 52 52 51 54 53 53 54 53 52 52 53 53 54
38 36 37 36 36 38 38 36 36 37 39 39 40 41 44 47 47 45 42 41 40 41 43 45 46 41 39 45 48 50 51 52 51 53 54 56 60 62 63 62 63 62 63 63 61 61 61 60 59
42 39 40 38 38 40 42 40 35 40 40 43 43 42 46 48 50 50 48 47 47 48 50 51 53 50 51 53 54 55 55 57 55 55 57 59 61 65 66 67 69 71 73 72 71 71 70 69 68
Wind_Direction
85 82 76 88 188 204 208 211 205 207 207 211 210 210 210 207 201 203 209 211 211 213 215 223 236 234 252 251 242 265 279 287 267 244 247 249 242 247 294 349 333 296 21 28 39 32 3 11 359
77 73 68 70 83 152 194 207 206 203 208 216 216 215 216 215 217 211 214 217 213 217 220 221 230 238 251 257 254 271 277 277 277 263 255 246 254 244 264 297 299 298 309 37 11 10 3 3 1
58 53 46 74 80 80 103 199 211 213 214 214 216 219 221 225 227 229 222 222 224 220 226 229 231 233 248 259 263 269 279 261 259 267 252 244 260 241 263 273 285 281 236 76 31 6 354 351 0
43 13 9 31 94 101 91 84 131 185 197 205 215 223 225 225 229 230 225 223 220 224 226 228 234 241 247 253 263 265 270 258 274 236 232 233 252 239 261 283 284 285 259 78 359 16 344 349 359
34 359 5 307 269 118 104 99 97 93 131 190 206 219 221 223 222 224 221 222 220 222 221 226 234 243 248 253 253 257 258 258 261 257 214 218 240 261 278 284 279 276 224 132 337 340 358 357 353
53 57 40 98 98 89 92 83 80 67 72 116 140 210 216 219 220 222 220 223 223 225 230 224 222 226 241 250 256 260 259 265 261 259 255 231 253 262 272 276 269 266 250 286 306 336 345 340 356
60 64 39 73 92 82 73 67 71 91 65 199 157 153 210 223 221 222 215 218 222 211 221 227 225 224 239 247 239 254 267 263 265 258 256 233 243 261 264 250 272 264 247 259 294 318 335 330 344
66 69 68 64 72 85 76 70 58 68 188 243 253 268 251 228 223 223 217 213 220 218 221 218 221 228 229 222 226 226 252 252 256 254 249 253 250 251 262 254 283 268 270 276 290 298 309 309 332
61 58 61 59 57 64 65 58 54 41 21 338 7 338 286 265 258 235 224 221 218 216 214 217 215 225 206 207 230 222 230 235 235 239 243 250 252 248 245 240 242 257 269 288 286 287 265 289 295
53 50 46 49 51 48 55 56 49 36 30 26 3 347 14 9 309 274 237 217 221 212 214 216 211 206 204 204 211 236 236 243 239 249 250 252 249 256 248 241 236 251 258 268 276 277 259 282 288
43 44 38 36 35 31 30 38 39 42 27 9 16 21 44 60 16 268 236 230 221 217 213 216 217 216 221 227 229 229 236 237 244 252 259 252 253 253 263 259 250 253 269 269 271 255 264 287 291
42 40 33 27 22 18 17 17 13 15 25 19 4 6 342 95 66 33 224 216 218 221 225 220 221 223 223 229 237 239 244 250 255 257 249 252 251 256 257 257 254 255 263 260 273 271 273 282 291
42 39 34 28 21 16 10 9 6 8 8 11 6 333 336 245 158 92 79 215 205 209 223 228 226 226 228 230 232 233 234 240 243 244 244 238 237 243 252 255 253 263 258 261 271 282 278 277 287
42 43 38 30 21 16 7 0 357 355 354 348 346 352 330 306 239 191 160 154 178 218 217 225 229 231 232 233 236 234 238 244 250 250 247 243 243 239 246 250 247 255 256 263 268 272 280 283 284
40 39 34 29 23 20 16 11 3 351 347 346 347 345 348 354 268 246 201 187 170 168 190 215 220 227 228 233 236 233 239 242 250 253 252 238 238 232 247 252 255 256 255 260 267 272 274 276 281
36 35 31 28 24 23 27 24 21 14 4 358 358 354 345 340 344 252 242 226 212 204 222 98 191 211 218 227 225 224 230 238 244 248 249 248 240 238 243 253 255 262 265 270 268 273 272 273 277
30 27 28 26 22 24 26 28 28 31 29 23 13 4 1 352 338 324 260 228 240 236 227 228 282 279 207 213 222 233 240 242 241 243 245 245 246 244 241 246 252 257 259 261 268 261 255 253 250
22 24 23 23 23 22 23 28 26 20 25 30 27 15 3 358 348 326 318 290 233 249 247 256 257 269 268 258 234 231 231 234 239 240 244 247 243 242 246 246 252 253 257 247 261 251 260 257 252
13 17 15 17 20 21 20 19 20 23 21 25 28 26 21 13 10 359 332 321 302 255 237 247 261 261 258 258 254 252 251 248 249 250 253 255 255 255 250 252 253 251 253 259 259 266 265 260 262
358 7 8 9 15 17 15 14 15 16 17 18 22 24 22 21 16 16 12 6 348 324 277 254 253 258 264 260 256 254 255 258 262 264 263 262 261 259 258 263 256 254 252 257 261 264 259 255 254
334 349 359 1 5 8 12 15 12 8 10 8 13 20 19 18 13 10 14 21 23 2 324 298 279 256 249 253 254 252 254 260 263 280 267 265 265 264 262 263 259 257 259 261 261 264 263 260 258
314 325 343 353 354 358 0 8 15 12 9 9 6 6 10 12 11 3 8 7 360 349 329 312 293 282 276 267 262 261 259 257 253 237 266 268 269 269 270 266 265 260 260 259 261 264 264 262 260
303 313 322 338 345 350 353 357 5 13 11 10 12 9 1 359 4 3 357 352 345 329 315 308 303 296 288 280 274 270 269 268 269 267 265 267 270 269 267 267 265 262 263 262 261 261 266 267 266
297 304 308 320 335 338 343 347 354 2 7 2 357 3 7 357 351 353 346 344 337 327 319 309 299 293 289 286 283 279 277 276 274 272 272 270 270 270 271 271 268 267 268 267 264 260 260 264 266
289 296 302 308 317 329 334 335 341 349 356 356 352 349 351 358 360 358 354 340 332 325 322 318 313 308 303 298 291 285 281 279 277 274 272 272 273 271 267 266 266 267 268 268 269 267 265 263 263
282 289 297 295 307 310 321 328 329 335 343 348 346 345 343 339 338 337 344 346 341 337 330 321 313 307 302 296 292 287 280 273 271 273 274 275 271 268 270 271 270 268 266 265 265 268 267 265 264
278 281 287 292 297 306 309 318 321 325 331 336 341 340 341 338 335 334 334 333 336 333 331 333 329 322 314 304 295 291 288 285 281 274 269 267 270 273 271 269 267 264 264 265 266 265 266 265 264
274 280 283 289 292 296 302 308 313 316 319 326 332 333 335 334 334 331 330 329 328 330 331 331 326 321 321 317 308 301 293 287 284 282 280 278 274 270 271 267 268 269 269 269 267 266 264 264 264
276 274 281 283 289 293 295 303 302 311 313 315 321 325 326 331 332 332 329 327 325 325 326 328 326 320 315 318 318 310 304 301 296 289 283 280 278 275 274 273 267 268 267 267 265 263 264 264 264
270 274 278 283 285 287 290 297 299 303 309 309 313 317 319 323 326 326 326 323 320 321 322 322 324 321 315 313 317 311 305 298 294 292 288 284 283 280 277 275 271 271 272 272 270 269 267 264 263
Height
10982 10980 10979 10977 10977 10978 10979 10980 10982 10985 10988 10991 10994 10996 10999 11001 11005 11009 11010 11012 11014 11015 11015 11014 11014 11013 11014 11016 11018 11019 11020 11020 11021 11022 11023 11024 11024 11024 11024 11023 11023 11021 11020 11019 11016 11015 11012 11011 11009
10982 10981 10980 10978 10977 10977 10978 10979 10980 10982 10985 10988 10991 10994 10996 10999 11002 11006 11010 11010 11012 11013 11015 11016 11015 11014 11014 11015 11017 11017 11018 11020 11019 11019 11021 11022 11023 11023 11023 11022 11024 11022 11021 11018 11017 11015 11014 11013 11010
10984 10984 10984 10982 10979 10978 10978 10979 10980 10981 10982 10984 10985 10989 10993 10995 10999 11002 11004 11007 11010 11011 11011 11013 11014 11014 11012 11013 11016 11017 11017 11019 11017 11018 11020 11021 11022 11021 11022 11022 11023 11023 11020 11017 11016 11016 11015 11014 11013
10988 10987 10985 10984 10982 10979 10979 10979 10979 10979 10980 10981 10982 10985 10988 10991 10994 10998 11000 11002 11006 11008 11010 11011 11011 11011 11012 11013 11013 11015 11016 11018 11018 11014 11016 11019 11021 11019 11020 11020 11022 11022 11019 11017 11017 11016 11016 11015 11013
10989 10987 10986 10985 10982 10979 10978 10979 10979 10980 10980 10980 10980 10981 10982 10985 10988 10991 10994 10998 11000 11003 11006 11007 11008 11008 11009 11010 11012 11013 11014 11015 11016 11017 11014 11017 11017 11017 11018 11019 11020 11020 11016 11015 11015 11016 11017 11016 11014
10989 10987 10986 10985 10982 10979 10977 10977 10977 10977 10978 10978 10978 10979 10980 10981 10983 10985 10990 10992 10995 10999 11002 11004 11006 11004 11006 11009 11011 11011 11010 11012 11012 11014 11014 11015 11016 11016 11017 11017 11017 11016 11014 11013 11014 11015 11017 11017 11015
10989 10987 10987 10985 10983 10980 10978 10977 10977 10976 10976 10976 10976 10977 10978 10978 10979 10981 10985 10986 10988 10994 10995 10998 10999 11000 11003 11006 11010 11007 11008 11007 11006 11010 11012 11013 11014 11015 11014 11014 11014 11014 11012 11011 11012 11013 11015 11016 11014
10989 10987 10986 10984 10982 10981 10979 10978 10978 10977 10975 10974 10973 10973 10974 10974 10975 10976 10979 10981 10984 10986 10989 10991 10993 10998 11003 11002 11003 11005 11005 11005 11005 11005 11009 11011 11012 11012 11012 11012 11012 11013 11011 11009 11010 11011 11012 11013 11013
10989 10987 10986 10985 10983 10980 10979 10978 10977 10976 10974 10973 10972 10972 10972 10971 10971 10971 10973 10976 10978 10980 10984 10986 10990 10992 10995 10996 10997 11000 11001 11001 11002 11002 11005 11008 11009 11009 11008 11010 11011 11009 11010 11009 11008 11009 11009 11010 11010
10989 10986 10985 10984 10982 10981 10980 10979 10977 10975 10974 10973 10971 10970 10969 10968 10967 10966 10968 10970 10972 10976 10978 10980 10982 10986 10988 10990 10990 10994 10998 10995 10999 10999 11002 11005 11007 11007 11007 11006 11006 11007 11007 11007 11006 11006 11006 11007 11008
10989 10987 10985 10983 10982 10981 10980 10979 10976 10975 10974 10972 10971 10970 10969 10969 10967 10965 10966 10966 10967 10969 10972 10975 10977 10980 10983 10985 10986 10990 10992 10993 10994 10996 10997 11000 11000 11002 11003 11004 11004 11005 11005 11004 11003 11003 11003 11004 11004
10989 10987 10985 10983 10981 10979 10978 10977 10975 10974 10974 10971 10970 10969 10969 10968 10967 10966 10965 10964 10965 10966 10967 10969 10972 10975 10979 10982 10984 10986 10986 10988 10988 10990 10991 10994 10995 10996 10997 10999 11000 11001 11002 11000 11000 11000 11000 11001 11001
10992 10989 10987 10985 10982 10980 10977 10975 10974 10973 10972 10971 10970 10969 10968 10968 10967 10966 10964 10963 10963 10964 10965 10966 10967 10971 10972 10976 10979 10980 10982 10982 10984 10985 10986 10988 10989 10989 10990 10993 10995 10996 10997 10997 10996 10996 10997 10997 10997
10995 10991 10989 10987 10984 10981 10977 10973 10971 10970 10970 10969 10969 10968 10967 10966 10966 10965 10964 10963 10962 10962 10963 10963 10965 10966 10967 10969 10970 10973 10975 10977 10978 10979 10981 10981 10982 10983 10984 10986 10988 10990 10990 10992 10992 10992 10992 10992 10993
10995 10992 10990 10988 10986 10983 10978 10974 10971 10968 10966 10967 10967 10966 10966 10966 10965 10964 10963 10963 10962 10962 10961 10961 10961 10962 10964 10965 10966 10968 10971 10973 10975 10976 10976 10975 10976 10978 10979 10980 10981 10983 10984 10985 10985 10985 10986 10986 10987
10997 10993 10991 10989 10988 10985 10980 10976 10972 10969 10966 10964 10964 10964 10964 10963 10963 10963 10962 10961 10961 10961 10961 10961 10960 10960 10960 10962 10964 10965 10966 10967 10970 10971 10971 10972 10972 10973 10974 10976 10978 10978 10979 10978 10979 10979 10979 10981 10981
10998 10997 10992 10991 10990 10986 10982 10978 10976 10972 10968 10965 10963 10962 10961 10961 10960 10960 10960 10959 10959 10959 10959 10959 10959 10959 10958 10958 10959 10960 10961 10961 10962 10963 10964 10965 10966 10968 10969 10970 10972 10974 10973 10974 10973 10971 10970 10971 10974
11000 10999 10997 10994 10991 10987 10984 10981 10978 10975 10971 10967 10964 10961 10959 10959 10958 10957 10956 10958 10957 10957 10957 10957 10957 10957 10957 10958 10957 10957 10957 10957 10957 10958 10959 10959 10960 10960 10961 10963 10963 10964 10965 10966 10966 10968 10966 10966 10967
11000 10999 10999 10995 10992 10989 10985 10982 10979 10976 10973 10970 10967 10964 10961 10958 10957 10956 10954 10954 10954 10955 10955 10955 10956 10956 10957 10956 10956 10955 10954 10954 10955 10955 10955 10955 10955 10955 10955 10956 10957 10956 10957 10958 10958 10959 10959 10959 10960
10999 10999 10998 10998 10993 10990 10987 10983 10980 10977 10975 10972 10969 10965 10962 10960 10957 10956 10954 10953 10952 10952 10953 10953 10954 10954 10954 10954 10953 10952 10952 10951 10952 10951 10951 10950 10950 10949 10951 10951 10951 10951 10952 10952 10953 10951 10952 10953 10952
10999 10999 10998 10997 10996 10993 10990 10985 10981 10979 10975 10971 10969 10967 10964 10962 10959 10957 10955 10953 10952 10951 10951 10951 10951 10951 10951 10950 10950 10949 10949 10950 10951 10957 10950 10948 10946 10946 10944 10944 10944 10945 10945 10947 10946 10944 10944 10943 10944
10997 10997 10997 10997 10996 10994 10991 10988 10985 10981 10976 10972 10969 10966 10964 10962 10960 10958 10955 10953 10951 10951 10950 10950 10948 10947 10946 10946 10946 10945 10946 10944 10948 10955 10946 10942 10941 10939 10938 10937 10934 10936 10937 10936 10936 10935 10933 10931 10934
10994 10993 10993 10993 10993 10992 10990 10987 10985 10982 10979 10975 10972 10968 10963 10960 10958 10956 10954 10953 10952 10950 10948 10946 10945 10944 10942 10941 10940 10940 10939 10939 10938 10936 10934 10933 10932 10931 10930 10929 10928 10928 10930 10929 10927 10927 10924 10925 10925
10990 10990 10989 10988 10989 10988 10988 10985 10983 10981 10979 10977 10974 10970 10966 10962 10958 10956 10954 10952 10950 10947 10945 10943 10941 10940 10938 10936 10935 10934 10933 10931 10930 10928 10925 10924 10923 10922 10920 10920 10919 10919 10917 10917 10917 10916 10916 10915 10915
10987 10986 10985 10983 10981 10982 10982 10982 10980 10978 10976 10974 10972 10971 10968 10964 10960 10957 10953 10951 10948 10945 10942 10940 10937 10935 10932 10929 10927 10926 10924 10923 10921 10918 10916 10914 10914 10912 10911 10908 10907 10907 10906 10904 10905 10905 10904 10904 10903
10984 10982 10982 10980 10979 10976 10976 10977 10975 10973 10972 10970 10968 10967 10965 10962 10959 10956 10952 10949 10946 10942 10939 10936 10933 10930 10927 10923 10919 10916 10914 10913 10911 10908 10906 10904 10902 10902 10900 10899 10898 10896 10895 10894 10893 10892 10891 10891 10891
10977 10977 10977 10975 10974 10973 10971 10970 10969 10968 10966 10964 10962 10959 10957 10956 10954 10951 10949 10944 10942 10938 10934 10929 10925 10920 10917 10914 10911 10908 10904 10901 10898 10897 10895 10894 10893 10890 10889 10887 10886 10884 10883 10882 10880 10879 10877 10877 10876
10971 10971 10971 10970 10968 10967 10967 10965 10963 10960 10960 10957 10955 10953 10950 10948 10945 10943 10939 10937 10935 10932 10930 10926 10921 10915 10911 10906 10901 10897 10893 10890 10888 10884 10881 10879 10877 10877 10875 10873 10871 10869 10867 10866 10866 10865 10864 10863 10861
10964 10965 10964 10964 10963 10961 10959 10959 10956 10956 10952 10950 10948 10945 10941 10937 10934 10932 10929 10926 10925 10922 10920 10917 10913 10909 10903 10898 10893 10888 10883 10878 10875 10870 10867 10864 10860 10857 10856 10855 10854 10851 10849 10848 10848 10847 10846 10846 10844
10956 10957 10956 10957 10957 10954 10951 10951 10954 10950 10948 10943 10941 10940 10936 10932 10929 10925 10922 10919 10914 10911 10908 10905 10902 10898 10893 10887 10884 10879 10873 10867 10862 10856 10851 10846 10843 10839 10837 10836 10834 10830 10827 10827 10826 10825 10825 10827 10826